Home   Weather   Mackay   Past weeks

Flag for Australia Past Weather in Mackay, Queensland, Australia — Yesterday and Last 2 Weeks

Now
76 °F

Passing clouds.


Feels Like: 77 °F
Forecast: 74 / 89 °F
Wind: 6 mph from North

Location: Mackay Mo

Current Time: Dec 4, 2016 at 3:52:18 am

Latest Report: Dec 4, 2016 at 3:00 am


Visibility: N/A

Pressure: 29.93 "Hg

Humidity: 82%

Dew Point: 70 °F

Location of MackayLocation

Past Weather in Mackay — Graph

°F

Mackay Temperature Yesterday

Maximum temperature yesterday: 90 °F (at 1:00 pm)
Minimum temperature yesterday: 74 °F (at 4:00 am)
Average temperature yesterday: 81 °F

High & Low Weather Summary for the Past Weeks

 TemperatureHumidityPressure
High91 °F (Dec 1, 1:00 pm)98% (Dec 1, 6:00 am)29.99 "Hg (Dec 1, 6:00 am)
Low69 °F (Nov 23, 4:00 am)41% (Dec 1, 1:00 pm)29.75 "Hg (Nov 23, 4:00 pm)
Average78 °F74%29.88 "Hg
* Reported Nov 19 1:00 am — Dec 4 1:00 am, Mackay, Weather by CustomWeather, © 2016

Note: Actual official high and low records may vary slightly from our data, if they occured in-between our weather recording intervals... More about our weather records

Advertising

Mackay Weather History for the Previous 24 Hours

Scroll right to see more
 ConditionsComfort  
Time TempWeatherWind HumidityBarometerVisibility
1:00 am
Sun, Dec 4
77 °FMild.6 mph82%29.95 "HgN/A
12:00 am77 °FPassing clouds.7 mph83%29.95 "HgN/A
10:00 pm
Sat, Dec 3
77 °FWarm.7 mph83%29.95 "HgN/A
9:00 pm78 °FPassing clouds.6 mph82%29.94 "HgN/A
7:00 pm79 °FWarm.6 mph77%29.92 "HgN/A
6:00 pm81 °FWarm.8 mph69%29.91 "HgN/A
4:00 pm87 °FWarm.8 mph58%29.88 "HgN/A
3:00 pm88 °FHot.8 mph54%29.89 "HgN/A
1:00 pm90 °FHot.9 mph59%29.93 "HgN/A
12:00 pm87 °FWarm.9 mph61%29.94 "HgN/A
10:00 am88 °FHot.7 mph60%29.96 "HgN/A
9:00 am85 °FWarm.8 mph62%29.96 "HgN/A
7:00 am78 °FWarm.5 mph85%29.93 "HgN/A
6:00 am74 °FMild.6 mph94%29.90 "HgN/A
4:00 am74 °FMild.5 mph94%29.86 "HgN/A
3:00 am75 °FPassing clouds.6 mph91%29.85 "HgN/A
Weather by CustomWeather, © 2016

See weather overviewHow to use our weather pages